Terminal Aerodrome Forecast
Issued by NWS Twin Cities, MN

Home | Current Version | Previous Version | Graphics & Text | Print | Product List | Glossary On
Versions: 1 2 3 4 5 6 7 8 9 10 11 12 13 14 15 16 17 18 19 20 21 22 23 24 25
845
FTUS43 KMPX 181120
TAFMSP
TAF
KMSP 181120Z 1812/1918 30004KT P6SM BKN250
     FM181500 27005KT P6SM VCSH SCT050 OVC100
     FM181800 27007KT P6SM SCT050 BKN100 PROB30 1821/1824 5SM -TSRA
      BKN050CB
     FM190100 30004KT P6SM SCT100 BKN250
     FM190500 VRB02KT P6SM SKC
     FM191000 VRB02KT 5SM BR SKC
     FM191400 27003KT P6SM SCT250=

USA.gov is the U.S. government's official web portal to all federal, state and local government web resources and services.